Hauptseite
METAR-TAF:

METAR-TAF

Flughäfen :

Emmen, Schweiz

Militärflugplatz Emmen

Breite: 47-05-32N, Länge: 8-18-16E, Höhe: 426 m

Beobachtung

Neuester Wetterbericht von vor 57 Minuten, um 18:50 UTC
Wind 7 kt aus Südwest
Temperatur 10°C
Luftfeuchtigkeit 82%
Luftdruck 1015 hPa
Sichtweite: 9000 m
Leicht bewölkt in der Höhe von 3300 ft
Geschlossene Wolkendecke in der Höhe von 4400 ft
Regen

METAR: LSME 221850Z AUTO 23007KT 9000NDV RA FEW033 OVC044 10/07 Q1015 RMK

Zeit: 20:47 (19:47 UTC)


TAF: fehlend

Wetterbeobachtungen und Prognosen von mehr als 4000 Flughäfen (METAR und TAF Bericht).

Die verfügbaren Stationen werden durch gelbe und rote Markierungen auf der Karte dargestellt.

Führen Sie die Maus auf sie, um den Namen der Station zu sehen.

Darauf klicken, um die Beobachtung von Wetterbeobachtungen und Prognosen zu sehen.

Um die Karte zu ändern : klicken Sie auf den grünen Tasten mit einem schwarzen Kreuz Zum Vergrößern, auf den grünen Button mit einem Gedankenstrich zu verkleinern, oder auf die grünen Pfeile für benachbarte Karten.


METAR-TAF: